Main page
METAR-TAF:

METAR-TAF

Airports :

Leconfield, England

Defence School of Transport

latitude: 53-52-37N, longitude: 0-26-15W, elevation: 7 m

Current weather observation

The report was made 44 minutes ago, at 20:50 UTC
Wind 11 kt from the West/Southwest
Temperature 10°C
Humidity 76%
Pressure 1006 hPa
Visibility 10 km or more

METAR: EGXV 232050Z AUTO 25011KT 9999 NCD 10/06 Q1006

Time: 21:34 (21:34 UTC)


TAF: missing

Weather observations and forecasts of more than 4000 airports (METAR and TAF reports).

The available stations are represented by yellow and red dots on the map.

Hover mouse over dot to see the name of the station.

Then click to see weather observations and forecasts.

To change the map : click on the green buttons with a black cross to zoom in, on the green button with a dash to zoom out, or on the green arrows for adjacent maps.


METAR-TAF: